Starlink 11397

operational
NORAD ID: 62590 Int'l Des: 2025-008 Owner: SPXS Country: US Constellation: starlink
LEOCIRCULAR

关于 Starlink 11397

正在加载描述...

实时位置

正在加载3D地球...

即将过境

高度历史

Altitude vs Time

uPlot chart will show altitude changes over time

两行轨道根数

1 62590U 25008D 25259.24435717 .00356028 00000-0 26490-2 0 9990
2 62590 43.0007 97.2052 0001540 307.0551 53.0176 15.70947409 39790
Epoch: Sep 16, 2025 • Age: 39 hours

当前状态

高度 365.2 km
速度 7.69 km/s
星下点 -41.75°S, 26.12°E
发射日期 Jan 13, 2025
运行时间 0.6 years
类型 internet

技术详情

分类 Payload
质量 960.00 kg
干质量 910.00 kg
总质量 960.00 kg
长度 0.30 m
直径 4.10 m
跨度 29.00 m
形状 Box + pan
制造商 SPXS
平台类型 Starlink V2MD
阶段状态 In Orbit
所有者/国家 SPXS/US

大型星座

Loading constellations...